Kuchera_Ratio
0.0 0.0 0.0 0.0 0.0 0.0 0.0 0.0 0.0 0.0 0.0 0.0 0.0 0.0 0.0 0.0 0.0 0.0 0.0 0.0 0.0 0.0
0.0 0.0 0.0 0.0 0.0 0.0 0.0 0.0 0.0 0.0 0.0 0.0 0.0 0.0 0.0 0.0 0.0 0.0 0.0 0.0 0.0 0.0
0.0 0.0 0.0 0.0 0.0 0.4 0.4 0.0 0.0 0.0 0.0 0.0 0.0 0.0 0.0 0.0 0.0 0.0 0.0 0.0 0.0 0.0
0.0 0.0 0.0 2.2 3.4 4.8 3.8 4.0 1.6 0.6 0.6 0.0 0.0 0.0 0.0 0.0 0.0 2.0 2.2 0.0 0.0 0.0
0.6 2.4 4.8 5.2 5.8 5.6 6.4 5.6 4.8 2.4 2.4 1.6 1.6 0.6 0.0 2.4 3.2 4.8 4.4 2.9 3.5 3.8
3.8 5.0 6.6 7.2 7.2 7.0 7.2 7.2 7.0 5.8 5.0 4.4 3.2 2.8 2.8 2.0 4.6 6.6 8.6 9.4 8.8 8.2
5.4 5.6 6.8 6.8 8.2 8.6 8.4 8.6 8.2 7.8 7.4 6.0 4.6 3.8 3.6 4.0 5.2 6.6 8.2 8.6 8.8 9.0
5.2 5.2 6.2 7.2 7.8 8.0 9.0 9.4 9.0 8.8 8.2 7.4 5.6 4.8 5.4 5.2 6.4 7.6 8.8 8.8 8.0 8.0
5.4 6.8 7.8 7.8 7.6 7.8 8.0 10.0 10.8 11.0 10.2 10.2 7.8 4.0 2.0 4.8 8.4 8.6 9.6 10.6 9.2 7.4
6.2 7.6 8.0 7.0 7.6 9.0 11.0 11.0 12.2 12.6 12.2 11.0 9.4 5.6 4.8 4.4 7.6 8.6 9.0 9.6 9.4 8.2
6.6 7.8 7.6 7.8 7.6 9.0 10.0 12.4 13.4 13.5 13.1 12.4 9.2 6.6 7.0 6.6 7.4 8.4 9.2 9.4 8.8 9.4
7.6 8.6 9.0 10.0 9.2 9.4 12.0 13.0 13.6 13.2 13.2 13.3 11.6 6.8 7.8 9.2 9.6 10.2 10.6 9.6 8.4 8.4
11.2 12.5 13.2 13.0 11.8 11.6 12.3 12.8 12.5 13.2 13.3 12.0 12.7 7.4 7.4 9.2 11.4 12.4 11.4 10.0 9.4 8.4
12.4 13.0 13.2 13.1 13.1 13.3 12.8 13.1 14.1 14.2 13.9 13.3 12.1 11.4 7.8 8.2 11.2 12.4 12.4 12.4 12.9 11.4